Wind_Speed
11 11 10 9 8 6 4 3 3 3 5 7 8 9 9 10 10 11 10 11 11 10 10 10 11 11 12 12 13 13 14 14 14 13 13 13 13 13 13 13 12 12 12
12 12 11 10 9 7 6 5 4 4 5 6 8 9 9 9 10 10 10 10 10 10 10 10 10 10 11 12 13 14 14 14 14 13 12 13 13 12 13 13 13 13 13
12 12 11 10 10 9 7 6 6 6 6 6 7 8 9 9 9 9 9 9 9 9 9 9 9 10 11 11 12 12 13 14 14 13 12 13 13 12 12 13 13 14 14
12 12 12 11 10 10 9 8 7 7 6 6 7 8 8 8 9 8 9 9 9 9 9 9 9 9 9 10 11 12 13 13 13 13 12 12 12 12 12 13 13 13 14
12 12 12 11 11 10 10 9 8 8 7 7 7 8 8 8 8 8 8 8 8 9 9 10 9 8 9 9 10 11 11 12 12 11 12 12 12 12 11 12 13 13 13
11 12 12 12 11 11 10 10 9 9 8 8 8 8 8 8 7 8 7 7 7 7 8 8 8 8 8 8 9 10 10 10 11 11 12 12 11 11 11 11 11 12 14
11 11 12 12 11 11 11 10 10 9 9 9 8 8 8 7 7 7 7 6 6 6 6 6 7 7 7 8 8 8 8 9 10 10 11 11 11 11 11 12 12 13 14
10 11 11 11 11 11 11 10 10 10 9 8 8 7 7 7 6 6 6 5 5 5 5 6 6 6 7 7 7 7 8 9 10 10 10 11 11 11 12 12 13 13 14
9 10 10 11 11 11 11 10 10 9 8 7 7 7 7 6 5 5 5 5 4 4 4 4 5 5 5 5 6 7 8 8 8 9 10 11 11 12 12 13 13 14 14
8 8 9 10 10 10 10 9 9 9 7 7 6 6 6 6 5 5 5 4 4 4 4 3 4 5 5 5 5 5 5 6 6 7 8 10 10 11 12 13 13 15 16
7 7 8 8 9 10 10 9 8 8 7 7 6 6 5 5 4 4 4 4 4 4 3 3 3 4 4 4 4 5 5 6 6 7 8 9 10 11 11 13 14 15 15
5 6 6 7 8 8 8 8 8 8 7 6 6 5 5 4 4 3 3 4 4 4 3 3 4 4 4 4 4 4 5 6 7 8 8 9 10 10 11 13 13 14 14
3 4 5 6 6 7 7 7 7 7 7 6 5 5 4 3 3 2 2 2 3 3 3 3 4 4 5 5 5 5 5 6 7 8 9 10 11 11 11 12 13 14 14
2 3 4 4 5 5 6 6 6 6 6 6 5 4 3 2 2 2 1 1 1 2 3 4 5 5 5 6 7 7 7 7 8 9 10 11 12 12 12 13 13 14 13
1 2 3 3 4 4 4 4 4 4 4 4 4 4 2 2 1 1 2 2 2 3 4 5 5 6 8 8 9 9 9 9 9 10 11 12 13 13 14 14 14 14 15
1 1 2 2 3 3 4 4 4 3 3 3 3 3 2 2 3 3 4 4 4 5 6 7 7 8 8 9 9 10 10 11 11 12 12 13 14 14 15 15 16 17 16
3 3 3 3 3 4 4 4 4 4 3 4 3 3 3 4 5 5 5 5 6 6 7 8 9 9 10 10 10 10 11 12 12 13 14 14 15 15 15 16 17 18 18
5 5 5 5 5 5 5 5 5 5 5 5 5 5 6 6 6 7 6 7 7 8 9 10 10 10 10 11 11 12 13 13 14 15 16 16 17 18 18 18 18 19 19
7 6 6 6 6 6 6 6 6 6 6 6 7 7 7 7 8 8 8 9 9 10 11 11 11 11 11 12 13 14 15 16 16 17 18 18 19 20 20 21 21 22 22
8 8 8 8 8 8 8 8 8 7 7 8 8 8 9 9 9 9 10 10 11 12 12 13 12 12 13 14 15 16 17 18 18 20 20 21 22 23 23 24 24 25 26
10 10 10 10 10 10 10 10 9 9 9 9 9 10 10 10 10 11 12 12 13 14 14 14 14 14 15 16 16 18 18 19 21 22 23 24 25 26 27 27 27 27 29
12 12 12 12 12 12 12 11 11 11 11 12 12 12 12 12 12 13 14 15 15 16 16 16 16 17 18 19 19 20 21 22 23 24 25 26 27 28 29 30 30 30 31
14 14 14 14 14 14 14 14 13 13 14 14 14 14 14 14 15 16 17 17 18 18 19 19 19 20 21 22 23 23 24 25 26 27 28 29 30 31 32 32 33 34 35
16 16 16 16 16 16 16 16 16 16 16 16 16 16 17 17 18 19 19 20 20 20 21 21 22 23 24 25 26 27 28 29 30 31 31 32 32 34 35 36 37 37 38
18 18 18 18 18 18 18 18 18 18 19 19 19 19 20 20 21 21 22 22 23 23 24 25 26 27 27 28 29 30 31 32 33 34 35 36 36 37 38 39 40 41 41
20 20 19 19 19 20 20 20 20 21 21 21 22 22 23 23 24 24 24 25 26 26 27 28 29 30 31 32 33 34 35 35 36 37 38 39 40 40 40 41 42 43 44
Wind_Direction
29 30 31 33 35 40 50 73 107 149 172 177 181 183 187 191 192 193 195 199 201 202 202 203 207 206 206 207 209 211 210 211 211 216 221 224 226 227 230 232 235 236 236
36 35 35 38 42 46 57 72 92 118 144 161 170 175 178 182 186 188 189 192 195 196 197 201 204 205 203 204 209 212 212 214 216 220 225 227 228 230 231 232 237 240 241
39 38 38 41 47 51 60 73 90 108 122 139 156 166 169 172 177 178 181 184 187 191 194 196 196 198 200 204 209 211 212 214 218 220 224 227 230 234 237 237 240 243 245
40 40 41 44 48 53 60 72 86 97 113 129 142 153 161 166 166 171 175 180 186 189 191 192 192 198 199 202 208 212 214 217 222 221 225 229 233 237 241 245 246 248 251
41 42 44 47 51 55 61 70 80 88 102 119 130 140 147 152 159 163 166 172 180 189 192 197 199 201 204 204 206 211 215 221 225 224 228 231 234 238 244 249 251 252 254
44 44 45 49 53 57 62 70 78 87 98 110 119 128 133 139 147 157 161 165 172 183 191 197 200 202 207 208 210 216 221 223 225 227 229 232 237 243 250 253 255 256 255
47 47 49 51 55 59 64 72 79 88 98 107 114 121 128 133 138 148 157 163 168 173 187 196 198 204 210 212 217 221 226 228 230 232 234 238 243 248 251 255 258 260 258
49 49 52 55 58 61 64 71 77 83 93 103 111 119 126 131 135 140 148 157 167 175 186 188 189 201 211 213 218 222 224 228 230 234 238 240 245 250 256 260 259 262 261
49 50 53 56 58 60 64 69 74 78 87 96 105 116 122 125 132 137 141 149 156 161 169 182 192 198 208 209 216 223 225 227 230 233 237 241 248 254 259 262 260 262 263
50 51 54 56 57 58 62 66 71 71 79 88 101 112 121 126 130 131 139 149 156 161 165 178 188 195 205 205 211 220 222 223 227 235 243 248 254 258 262 265 266 265 264
50 54 55 55 56 58 58 60 61 64 72 80 92 101 110 121 129 139 144 157 167 173 174 179 184 191 198 210 219 223 230 237 240 245 251 255 259 264 269 272 273 274 272
50 51 53 54 55 56 56 57 56 60 65 74 83 91 98 107 116 132 148 167 176 182 192 202 205 208 219 233 239 240 241 246 250 253 255 257 261 266 271 275 276 278 278
55 50 46 51 53 51 52 55 56 57 62 68 75 83 92 98 105 117 133 167 189 203 223 228 232 237 243 247 252 261 261 256 259 266 267 266 265 269 273 277 280 282 281
52 45 40 43 47 46 47 49 49 51 57 60 60 62 73 80 85 93 103 190 229 233 248 251 250 250 254 258 263 269 274 273 273 275 274 273 272 273 277 279 280 282 281
16 30 31 29 36 38 35 34 34 37 46 49 45 43 38 23 351 323 308 292 284 278 279 277 271 266 268 272 273 275 278 278 280 277 280 281 280 278 279 280 281 282 282
288 335 351 356 358 3 4 7 9 6 1 0 6 7 357 338 325 318 315 305 295 292 289 285 286 285 281 278 278 280 285 284 284 284 284 285 286 284 282 281 281 280 279
276 295 308 317 325 331 334 334 338 336 328 323 321 322 321 319 320 320 312 305 302 299 295 291 288 287 286 284 283 283 285 285 287 290 290 289 288 287 286 284 282 285 282
271 282 293 298 303 308 313 315 314 311 311 310 307 303 300 303 306 311 310 305 302 301 300 295 291 289 288 285 284 284 285 285 287 289 290 290 290 289 287 285 286 286 284
268 275 285 292 295 297 299 302 304 303 303 305 306 305 298 297 299 301 302 302 300 299 300 296 292 289 287 288 288 287 288 289 289 290 291 291 289 289 288 286 286 286 285
270 274 280 286 287 288 292 293 296 298 299 302 302 300 297 296 295 297 297 299 298 298 298 295 291 288 289 290 290 290 289 291 291 291 292 292 290 289 289 289 287 285 285
269 272 277 282 282 284 285 285 287 291 296 298 300 300 298 297 296 297 297 299 298 298 298 295 291 290 291 291 292 292 290 292 292 292 292 293 293 292 290 290 289 288 286
268 273 276 278 279 281 282 281 282 284 289 292 293 294 295 296 297 297 297 299 298 298 296 294 292 292 292 290 290 291 290 291 291 292 293 293 293 293 292 291 291 291 290
268 271 274 276 278 279 279 279 280 282 285 287 289 291 292 294 295 295 294 295 295 294 294 292 292 293 292 291 290 290 290 290 291 291 292 293 292 292 291 291 291 290 291
268 271 273 274 275 277 278 279 279 281 284 286 286 287 289 291 292 293 293 294 294 293 293 291 293 294 293 292 291 291 291 291 291 291 291 291 291 291 291 291 290 290 290
269 271 272 273 274 275 276 278 279 281 283 285 286 287 288 289 291 292 293 293 293 293 293 292 292 293 293 292 292 292 291 291 292 292 291 290 290 290 290 290 290 290 290
270 271 272 273 275 275 275 277 279 281 283 284 285 287 287 288 290 292 292 293 293 292 293 293 292 292 292 292 292 293 292 292 292 292 291 291 291 290 290 289 289 289 289
Height
5876 5874 5871 5869 5867 5865 5864 5863 5863 5863 5863 5864 5865 5866 5868 5869 5871 5873 5874 5876 5877 5879 5880 5881 5882 5884 5885 5886 5888 5889 5891 5892 5894 5895 5896 5897 5898 5899 5900 5900 5901 5901 5902
5877 5875 5872 5870 5868 5866 5864 5863 5863 5863 5863 5864 5865 5866 5868 5869 5871 5872 5874 5875 5877 5878 5879 5880 5882 5883 5884 5885 5887 5888 5889 5891 5892 5893 5894 5895 5896 5897 5898 5898 5899 5899 5900
5878 5876 5873 5871 5869 5867 5865 5864 5864 5864 5864 5864 5865 5866 5868 5869 5871 5872 5873 5875 5876 5877 5879 5880 5881 5882 5883 5884 5886 5887 5888 5890 5891 5892 5892 5893 5894 5895 5896 5896 5897 5897 5897
5880 5877 5875 5873 5871 5869 5867 5866 5865 5865 5865 5865 5866 5867 5868 5869 5871 5872 5873 5875 5876 5877 5878 5879 5880 5882 5883 5883 5885 5886 5887 5888 5889 5890 5891 5892 5893 5893 5894 5894 5894 5894 5893
5881 5879 5876 5874 5872 5870 5869 5868 5867 5866 5866 5866 5867 5868 5869 5870 5871 5872 5873 5875 5875 5877 5878 5879 5880 5881 5882 5883 5884 5885 5885 5886 5887 5888 5889 5890 5891 5891 5892 5892 5891 5891 5891
5882 5880 5878 5876 5874 5873 5871 5870 5869 5868 5868 5868 5869 5869 5870 5871 5872 5873 5874 5875 5876 5876 5877 5879 5880 5881 5881 5882 5883 5884 5884 5885 5886 5887 5887 5888 5889 5889 5889 5889 5889 5888 5888
5884 5882 5880 5878 5876 5875 5874 5872 5871 5871 5870 5870 5871 5871 5872 5872 5873 5874 5875 5875 5876 5877 5877 5878 5879 5880 5881 5881 5882 5883 5883 5884 5884 5885 5886 5886 5887 5887 5887 5887 5887 5886 5885
5885 5883 5882 5880 5879 5877 5876 5875 5874 5873 5873 5872 5873 5873 5874 5875 5874 5875 5875 5876 5877 5877 5878 5878 5879 5879 5880 5881 5881 5881 5882 5882 5883 5883 5884 5884 5885 5885 5885 5885 5884 5883 5881
5887 5885 5884 5882 5881 5880 5879 5877 5876 5875 5875 5874 5874 5874 5875 5875 5876 5876 5876 5877 5877 5878 5878 5878 5879 5879 5879 5879 5880 5880 5880 5880 5881 5881 5881 5882 5883 5883 5883 5882 5881 5880 5878
5888 5887 5886 5885 5883 5882 5881 5879 5878 5877 5876 5875 5874 5874 5875 5876 5876 5877 5877 5877 5878 5878 5878 5878 5878 5879 5879 5879 5879 5879 5879 5879 5879 5879 5880 5880 5880 5881 5880 5879 5879 5877 5876
5890 5889 5888 5887 5885 5884 5883 5881 5880 5879 5877 5876 5875 5875 5876 5876 5877 5877 5877 5878 5878 5878 5878 5878 5878 5878 5878 5878 5878 5878 5879 5879 5878 5878 5878 5878 5878 5878 5878 5877 5876 5874 5872
5891 5890 5889 5888 5887 5886 5885 5883 5882 5880 5879 5878 5877 5877 5877 5877 5877 5878 5878 5878 5878 5878 5878 5878 5878 5878 5878 5878 5878 5878 5878 5878 5877 5877 5877 5877 5877 5876 5875 5874 5873 5871 5868
5892 5891 5890 5889 5888 5887 5886 5885 5884 5882 5881 5880 5879 5878 5878 5878 5878 5878 5878 5878 5878 5878 5878 5878 5878 5877 5877 5877 5877 5877 5877 5876 5876 5876 5876 5875 5875 5874 5873 5872 5871 5869 5866
5893 5892 5891 5890 5889 5888 5887 5886 5885 5884 5883 5882 5881 5880 5880 5879 5879 5878 5878 5878 5878 5878 5877 5877 5877 5876 5876 5876 5876 5875 5875 5875 5874 5874 5874 5873 5872 5872 5870 5869 5868 5867 5865
5893 5892 5891 5891 5890 5889 5888 5887 5886 5885 5884 5883 5882 5881 5881 5880 5879 5879 5878 5878 5878 5877 5877 5876 5875 5875 5874 5874 5874 5874 5873 5873 5872 5872 5871 5870 5870 5869 5868 5867 5865 5864 5863
5893 5892 5891 5891 5890 5889 5889 5888 5887 5886 5885 5884 5883 5882 5881 5880 5879 5878 5877 5877 5876 5876 5875 5874 5873 5872 5872 5871 5871 5871 5871 5870 5870 5869 5868 5867 5866 5865 5864 5863 5862 5862 5861
5892 5892 5891 5890 5890 5889 5888 5887 5886 5885 5885 5884 5882 5881 5880 5880 5879 5878 5877 5876 5875 5874 5873 5872 5871 5870 5869 5869 5869 5869 5868 5868 5867 5866 5865 5864 5863 5862 5861 5860 5858 5857 5856
5891 5891 5890 5889 5889 5888 5887 5887 5886 5885 5884 5883 5882 5880 5879 5879 5878 5876 5875 5874 5873 5872 5871 5870 5869 5868 5867 5866 5866 5865 5865 5864 5863 5862 5861 5860 5859 5857 5856 5855 5854 5853 5852
5889 5889 5889 5888 5887 5887 5886 5885 5884 5883 5882 5881 5880 5879 5878 5877 5876 5875 5874 5872 5871 5870 5868 5867 5866 5865 5864 5864 5863 5862 5861 5860 5859 5858 5857 5856 5854 5852 5851 5850 5849 5847 5846
5887 5887 5887 5886 5886 5885 5884 5884 5883 5882 5881 5880 5879 5877 5876 5875 5874 5873 5871 5870 5868 5867 5865 5864 5863 5862 5861 5860 5859 5858 5857 5856 5855 5853 5852 5850 5849 5847 5845 5844 5842 5841 5839
5885 5885 5884 5884 5884 5883 5882 5881 5881 5880 5879 5878 5876 5875 5874 5873 5871 5870 5869 5867 5866 5864 5862 5861 5859 5858 5857 5856 5855 5854 5853 5851 5850 5848 5846 5844 5842 5840 5838 5836 5835 5833 5831
5882 5882 5882 5881 5881 5880 5879 5879 5878 5877 5876 5875 5874 5873 5871 5870 5869 5867 5865 5864 5862 5860 5859 5857 5855 5854 5853 5851 5850 5848 5847 5846 5844 5842 5840 5838 5835 5833 5831 5828 5826 5825 5823
5879 5878 5878 5878 5877 5877 5876 5876 5875 5874 5873 5872 5871 5869 5868 5867 5865 5863 5862 5860 5858 5856 5854 5852 5850 5849 5847 5846 5844 5842 5841 5839 5837 5835 5833 5830 5828 5825 5822 5820 5818 5816 5813
5874 5874 5874 5873 5873 5873 5872 5871 5871 5870 5869 5868 5867 5865 5864 5862 5861 5859 5857 5855 5853 5851 5849 5847 5845 5843 5841 5839 5837 5836 5833 5832 5829 5827 5824 5822 5819 5817 5814 5811 5808 5806 5803
5870 5869 5869 5869 5868 5868 5867 5867 5866 5865 5864 5863 5862 5860 5859 5857 5856 5854 5852 5849 5847 5845 5843 5841 5839 5836 5834 5832 5830 5828 5825 5823 5821 5818 5815 5812 5810 5807 5804 5801 5798 5795 5792
5865 5864 5864 5863 5863 5862 5862 5861 5860 5860 5859 5858 5857 5855 5853 5851 5850 5847 5845 5843 5841 5838 5836 5834 5831 5829 5826 5823 5821 5818 5816 5813 5810 5808 5805 5802 5799 5796 5793 5790 5786 5783 5780